Jackson, KY

9:59 PM EDT on August 23, 2017 (GMT -0400)
Carroll

Weather History for KJKL - November, 2013

Change the Weather History Date:

Tuesday, November 12, 2013

  Actual Average Record
Temperature  
Mean Temperature 42 °F 50 °F  
Max Temperature 55 °F 59 °F 73 °F (1985)
Min Temperature 29 °F 41 °F 19 °F (1995)
Degree Days  
Heating Degree Days 23 15  
Month to date heating degree days 174 162  
Since 1 July heating degree days 444 459  
Cooling Degree Days 0 0  
Month to date cooling degree days 0 0  
Year to date cooling degree days 1069 1150  
Moisture  
Dew Point 26 °F    
Average Humidity 58    
Maximum Humidity 92    
Minimum Humidity 24    
Precipitation  
Precipitation 0.17 in 0.13 in 0.55 in (1992)
Month to date precipitation 0.95 1.48  
Year to date precipitation 47.57 41.68  
Snow  
Snow 0.90 in 0.00 in 0.90 in (2013)
Month to date snowfall 0.9 0.1  
Since 1 July snowfall 1.0 0.2  
Since 1 September snowfall 1.0 0.2  
Snow Depth 1.00 in    
Sea Level Pressure  
Sea Level Pressure 30.38 in    
Wind  
Wind Speed 6 mph (North)    
Max Wind Speed 14 mph    
Max Gust Speed 23 mph    
Visibility 7 miles    
Events Fog , Rain , Snow    
T = Trace of Precipitation, MM = Missing Value Source: NWS Daily Summary

Daily Weather History Graph

Daily Weather History Graph

Search for Another Location

Airport or City:

Trip Planner

Search our weather history database for the weather conditions in past years. The results will help you decide how hot, cold, wet, or windy it might be!

Date:

Astronomy

Nov. 12, 2013 Rise Set
Actual Time 7:10 AM EST 5:24 PM EST
Civil Twilight 6:42 AM EST 5:52 PM EST
Nautical Twilight 6:10 AM EST 6:23 PM EST
Astronomical Twilight 5:40 AM EST 6:54 PM EST
Moon 2:33 PM EST (11/12) 2:04 AM EST (11/12)
Length of Visible Light 11h 09m
Length of Day
10h 14m
Waxing Gibbous, 76% of the Moon is Illuminated
Nov 12
Waxing Gibbous
Nov 17
Full
Nov 25
Last Quarter
Dec 2
New
Dec 9
First Quarter

Hourly Weather History & Observations

Time (EST) Temp. Windchill Dew Point Humidity Pressure Visibility Wind Dir Wind Speed Gust Speed Precip Events Conditions
12:53 AM 54.0 °F - 21.0 °F 28% 30.11 in 10.0 mi WSW 4.6 mph - 0.00 in   Overcast
1:53 AM 50.0 °F - 35.1 °F 57% 30.11 in 10.0 mi North 9.2 mph 19.6 mph N/A   Overcast
2:45 AM 48.0 °F - 39.0 °F 71% 30.15 in 10.0 mi Variable 4.6 mph - N/A   Overcast
2:53 AM 48.0 °F - 39.0 °F 71% 30.14 in 10.0 mi NNE 9.2 mph - N/A   Overcast
3:32 AM 46.0 °F 43.1 °F 39.0 °F 76% 30.17 in 10.0 mi Variable 5.8 mph - N/A   Overcast
3:53 AM 43.0 °F 38.2 °F 37.9 °F 82% 30.18 in 10.0 mi North 8.1 mph - 0.00 in Rain Light Rain
4:42 AM 37.0 °F 29.8 °F 34.0 °F 89% 30.21 in 6.0 mi North 10.4 mph 18.4 mph 0.00 in Rain Light Rain
4:53 AM 37.0 °F 32.4 °F 33.1 °F 86% 30.23 in 6.0 mi Variable 5.8 mph 19.6 mph 0.00 in Rain Light Rain
5:53 AM 33.1 °F 26.9 °F 30.9 °F 92% 30.28 in 1.8 mi Variable 6.9 mph - 0.04 in Snow Light Snow
6:02 AM 33.1 °F 27.7 °F 30.9 °F 92% 30.27 in 1.5 mi Variable 5.8 mph - 0.00 in Snow Light Snow
6:13 AM 33.1 °F 28.7 °F 30.9 °F 92% 30.28 in 1.2 mi NNE 4.6 mph - 0.01 in Snow Light Snow
6:29 AM 32.0 °F 26.4 °F 30.0 °F 92% 30.29 in 0.5 mi Variable 5.8 mph - 0.03 in Fog , Snow Snow
6:40 AM 32.0 °F 24.8 °F 30.0 °F 92% 30.30 in 0.5 mi North 8.1 mph - 0.04 in Fog , Snow Snow
6:50 AM 32.0 °F 24.2 °F 30.2 °F 93% 30.30 in 0.8 mi NNE 9.2 mph - 0.05 in Snow Light Snow
6:53 AM 32.0 °F 25.6 °F 30.0 °F 92% 30.32 in 1.0 mi Variable 6.9 mph - 0.05 in Snow Light Snow
7:12 AM 32.0 °F 26.4 °F 30.0 °F 92% 30.31 in 0.5 mi Variable 5.8 mph - 0.02 in Fog , Snow Snow
7:27 AM 30.9 °F 24.3 °F 28.9 °F 92% 30.33 in 0.8 mi NNE 6.9 mph - 0.03 in Snow Light Snow
7:53 AM 30.0 °F 22.4 °F 28.0 °F 92% 30.36 in 0.5 mi North 8.1 mph - 0.04 in Fog , Snow Snow
8:41 AM 28.9 °F 22.8 °F 27.0 °F 92% 30.37 in 0.5 mi Variable 5.8 mph - 0.03 in Fog , Snow Snow
8:53 AM 28.9 °F 21.9 °F 27.0 °F 92% 30.39 in 0.5 mi Variable 6.9 mph - 0.04 in Fog , Snow Light Snow
9:05 AM 28.9 °F 22.8 °F 27.0 °F 92% 30.38 in 1.5 mi Variable 5.8 mph - 0.00 in Snow Light Snow
9:08 AM 28.9 °F 22.8 °F 27.0 °F 92% 30.39 in 2.0 mi NNE 5.8 mph - 0.00 in Snow Light Snow
9:17 AM 28.9 °F 20.4 °F 27.0 °F 92% 30.40 in 7.0 mi NNE 9.2 mph - 0.00 in   Overcast
9:53 AM 28.9 °F 22.8 °F 25.0 °F 85% 30.42 in 10.0 mi Variable 5.8 mph - 0.00 in   Overcast
10:11 AM 28.9 °F 22.8 °F 24.1 °F 82% 30.41 in 10.0 mi Variable 5.8 mph - N/A   Overcast
10:28 AM 28.9 °F 22.8 °F 25.0 °F 85% 30.42 in 10.0 mi Variable 5.8 mph - N/A   Overcast
10:53 AM 30.0 °F 26.5 °F 25.0 °F 82% 30.43 in 10.0 mi NNE 3.5 mph - N/A   Overcast
11:00 AM 30.0 °F 26.5 °F 25.0 °F 82% 30.42 in 10.0 mi Variable 3.5 mph - N/A   Overcast
11:31 AM 28.9 °F 20.4 °F 24.1 °F 82% 30.42 in 10.0 mi North 9.2 mph - N/A   Overcast
11:53 AM 30.0 °F 24.1 °F 24.1 °F 79% 30.44 in 10.0 mi Variable 5.8 mph 18.4 mph N/A   Mostly Cloudy
12:53 PM 30.9 °F 25.2 °F 23.0 °F 72% 30.44 in 10.0 mi Variable 5.8 mph - N/A   Mostly Cloudy
1:12 PM 32.0 °F 28.7 °F 23.0 °F 69% 30.42 in 10.0 mi Variable 3.5 mph - N/A   Scattered Clouds
1:30 PM 30.9 °F 25.2 °F 23.0 °F 72% 30.43 in 10.0 mi NNE 5.8 mph - N/A   Mostly Cloudy
1:53 PM 30.9 °F 26.2 °F 21.9 °F 69% 30.45 in 10.0 mi Variable 4.6 mph - N/A   Overcast
2:26 PM 32.0 °F 28.7 °F 21.9 °F 66% 30.44 in 10.0 mi Variable 3.5 mph - N/A   Overcast
2:33 PM 30.9 °F 23.5 °F 21.0 °F 67% 30.44 in 10.0 mi NNW 8.1 mph - N/A   Overcast
2:53 PM 30.9 °F 25.2 °F 19.9 °F 64% 30.47 in 10.0 mi Variable 5.8 mph - N/A   Overcast
3:53 PM 30.0 °F 26.5 °F 19.0 °F 64% 30.50 in 10.0 mi Variable 3.5 mph - N/A   Overcast
4:53 PM 30.0 °F 25.2 °F 19.9 °F 66% 30.52 in 10.0 mi NNE 4.6 mph - N/A   Overcast
5:53 PM 28.9 °F 23.9 °F 18.0 °F 64% 30.55 in 10.0 mi NNE 4.6 mph - N/A   Overcast
6:53 PM 28.0 °F - 15.1 °F 58% 30.56 in 10.0 mi Calm Calm - N/A   Mostly Cloudy
7:53 PM 28.0 °F 24.2 °F 16.0 °F 61% 30.58 in 10.0 mi North 3.5 mph - N/A   Partly Cloudy
8:53 PM 28.0 °F 24.2 °F 16.0 °F 61% 30.59 in 10.0 mi NNW 3.5 mph - N/A   Clear
9:53 PM 27.0 °F 23.0 °F 17.1 °F 66% 30.61 in 10.0 mi Variable 3.5 mph - N/A   Clear
10:53 PM 26.1 °F 21.9 °F 17.1 °F 69% 30.62 in 10.0 mi Variable 3.5 mph - N/A   Clear
11:53 PM 26.1 °F - 16.0 °F 66% 30.62 in 10.0 mi Calm Calm - N/A   Clear